Simultaneous Nadir Overpasses (SNOs) Predictions

Prediction of SNOs between METOP-A and TERRA Satellite Orbit:

Table of predicted SNOs for the next 14.0 days since TLE Epoch: 7/28/2015
Index Date (METOP-A) Time (METOP-A) Lat,Lon (METOP-A) SZA (METOP-A ) Date (TERRA) Time (TERRA) Lat,Lon (TERRA) SZA (TERRA ) Distance(km) Time Diff (sec)
1 07/29/2015 00:30:36 -81.35, 40.46 114.72 07/29/2015 00:31:09 -81.35, 40.47 114.71 0.14 33
2 07/29/2015 01:21:15 81.36,-151.61 65.36 07/29/2015 01:20:35 81.36,-151.78 65.32 2.85 40
3 07/31/2015 20:04:58 -81.35, 106.90 114.04 07/31/2015 20:05:24 -81.34, 106.80 114.04 1.68 26
4 07/31/2015 20:55:38 81.35, -85.60 65.99 07/31/2015 20:54:50 81.35, -85.48 65.98 2.09 48
5 08/03/2015 15:39:19 -81.35, 173.31 113.32 08/03/2015 15:39:37 -81.36, 173.45 113.29 2.36 18
6 08/
